Find Rassvet-1 No. 3

NORAD ID: 57170 Int'l Des: NNA 2023-091 Owner: B1440 Country: RU Constellation: Rassvet operational
LEOCIRCULARRETROGRADESSO

Live Position

Loading 3D Globe...

About Rassvet-1 No. 3

Description loading...

Upcoming Passes

Passes for default location (London). Set your location on the main map for personalized predictions.

Altitude History

Loading altitude history...

Two-Line Element Set

1 57170U 23091E 26107.24215817 .00004959 00000-0 21248-3 0 9998
2 57170 97.5169 168.7577 0007640 311.6856 48.3726 15.23212292154882
Epoch: Apr 17, 2026 • Age: 10 hours

Current Status

Altitude 506.4 km
Velocity 7.61 km/s
Sub-Earth Point -22.93°S, 102.2°W
Launch Date Jun 27, 2023
Age 2.8 years
Type other

Technical Details

Classification Payload
Mass 80.00 kg
Dry Mass 80.00 kg
Total Mass 80.00 kg
Length 0.80 m
Diameter 0.60 m
Span 3.00 m
Shape Box+2 pan
Manufacturer B1440
Bus Type Rassvet-1
Phase Status In Orbit
Owner/State B1440/RU

Most Searched